This demonstration page uses our WeatherBlox Daily Observations layout. Learn more.

Left ArrowRight Arrow

34.16533, -84.80231

Hourly Observations for March 27, 2017

Temp ( °F °C ) Dew Point ( °F °C ) Humidity (%) Winds ( mph kmh ) Pressure ( in mb ) Visibility ( mi km ) Precip ( " mm )
12:53 am 00:53 Clear 56 13.3 54 12.2 93 93 Calm 30.03 1017 10 16 0.00 0.00
1:53 am 01:53 Mostly Clear 55 12.8 53 11.7 93 93 Calm 30.02 1017 10 16 0.00 0.00
2:53 am 02:53 Clear 55 12.8 53 11.7 93 93 Calm 30.01 1016 10 16 0.00 0.00
3:53 am 03:53 Clear 52 11.1 51 10.6 97 97 Calm 30.01 1016 10 16 0.00 0.00
4:53 am 04:53 Clear 51 10.6 51 10.6 100 100 Calm 30.01 1016 10 16 0.00 0.00
5:53 am 05:53 Partly Cloudy 52 11.1 51 10.6 97 97 Calm 30.02 1017 10 16 0.00 0.00
6:53 am 06:53 Mostly Cloudy 54 12.2 52 11.1 93 93 Calm 30.04 1017 10 16 0.00 0.00
7:03 am 07:03 Mostly Cloudy 54 12.2 53 11.7 97 97 Calm 30.06 1018 10 16 0.00 0.00
7:34 am 07:34 Cloudy 56 13.3 54 12.2 93 93 Calm 30.09 1019 10 16 0.00 0.00
7:53 am 07:53 Cloudy 58 14.4 56 13.3 93 93 Calm 30.06 1018 10 16 0.00 0.00
8:53 am 08:53 Cloudy 60 15.6 57 13.9 90 90 Calm 30.09 1019 10 16 0.00 0.00
9:53 am 09:53 Cloudy 62 16.7 58 14.4 86 86 Calm 30.09 1019 10 16 0.00 0.00
10:26 am 10:26 Cloudy 65 18.3 60 15.6 84 84 NE 3 6 30.09 1019 10 16 0.00 0.00
10:53 am 10:53 Mostly Sunny 68 20 61 16.1 78 78 NNE 5 7 30.08 1019 10 16 0.00 0.00
11:53 am 11:53 Mostly Cloudy 70 21.1 61 16.1 73 73 SE 3 6 30.06 1018 10 16 0.00 0.00
12:53 pm 12:53 Mostly Cloudy 73 22.8 59 15 62 62 SSE 6 9 30.04 1017 10 16 0.00 0.00
1:53 pm 13:53 Partly Cloudy 75 23.9 58 14.4 55 55 VRB 3 6 30.01 1016 10 16 0.00 0.00
2:53 pm 14:53 Partly Cloudy 75 23.9 58 14.4 55 55 S 9 15 29.98 1015 10 16 0.00 0.00
3:53 pm 15:53 Partly Cloudy 76 24.4 57 13.9 52 52 S 9 15 29.94 1014 10 16 0.00 0.00
4:53 pm 16:53 Cloudy 73 22.8 58 14.4 59 59 SE 6 9 29.92 1013 10 16 0.00 0.00
5:53 pm 17:53 Partly Cloudy 74 23.3 59 15 60 60 SSE 5 7 29.90 1013 10 16 0.00 0.00
6:53 pm 18:53 Mostly Cloudy 73 22.8 57 13.9 57 57 S 5 7 29.89 1012 10 16 0.00 0.00
7:53 pm 19:53 Partly Cloudy 68 20 58 14.4 70 70 Calm 29.90 1013 10 16 0.00 0.00
8:53 pm 20:53 Mostly Clear 65 18.3 58 14.4 78 78 S 3 6 29.89 1012 10 16 0.00 0.00
9:27 pm 21:27 Cloudy with Nearby Thunderstorms 64 17.8 60 15.6 87 87 Calm 29.91 1013 10 16 0.01 0.25
9:53 pm 21:53 Cloudy with Nearby Thunderstorms 64 17.8 61 16.1 90 90 Calm 29.90 1013 10 16 0.03 0.76
10:00 pm 22:00 Cloudy 63 17.2 61 16.1 93 93 Calm 29.94 1014 10 16 0.00 0.00
10:12 pm 22:12 Cloudy with Thunderstorms 64 17.8 61 16.1 90 90 N 8 13 29.94 1014 10 16 0.00 0.03
10:53 pm 22:53 Cloudy with Strong Thunderstorms 63 17.2 61 16.1 93 93 Calm 29.96 1015 2 3 0.21 5.33
10:58 pm 22:58 Cloudy with Strong Thunderstorms 62 16.7 61 16.1 96 96 undefined N/A 29.97 1015 1 1 0.21 5.33
11:03 pm 23:03 Cloudy with Thunderstorms 62 16.7 61 16.1 96 96 VRB 6 9 30.00 1016 1 2 0.25 6.35
11:07 pm 23:07 Cloudy with Thunderstorms 62 16.7 61 16.1 96 96 VRB 3 6 30.00 1016 3 5 0.25 6.35
11:14 pm 23:14 Cloudy with Strong Thunderstorms 61 16.1 61 16.1 100 100 VRB 3 6 30.00 1016 2 3 0.36 9.14
11:23 pm 23:23 Cloudy with Nearby Thunderstorms 61 16.1 59 15 93 93 SE 6 9 30.00 1016 3 5 0.40 10.16
11:31 pm 23:31 Cloudy with Nearby Thunderstorms 61 16.1 60 15.6 97 97 ESE 7 11 29.97 1015 9 14 0.41 10.41
11:51 pm 23:51 Mostly Cloudy 61 16 61 16 100 100 SE 5 7 29.97 1015 10 16 0.41 10.41
11:53 pm 23:53 Mostly Cloudy 61 16.1 60 15.6 97 97 SE 5 7 29.94 1014 10 16 0.41 10.41

Powered by AerisWeather